Wind_Speed
24 26 27 29 29 30 32 33 34 34 33 33 33 34 35 37 37 38 38 40 41 42 42 43 43 44 45 44 44 44 45 45 45 46 46 46 47 47 47 47 47 47 47 48
24 24 26 28 29 30 31 32 33 32 33 33 33 34 34 36 37 37 37 39 40 41 41 42 43 43 44 44 44 44 44 44 44 44 44 45 45 46 46 47 47 48 48 48
23 24 25 26 27 29 31 32 33 32 32 33 33 33 34 35 36 36 37 38 39 40 41 41 42 42 43 43 44 44 44 44 43 44 44 45 46 46 47 47 48 48 48 49
23 24 26 26 26 28 30 31 32 33 32 32 32 33 35 35 36 37 37 37 38 39 40 41 42 42 43 44 44 44 44 44 44 44 45 45 46 46 47 48 48 49 49 49
23 25 26 26 25 26 28 29 31 33 34 33 33 33 34 35 37 37 38 38 39 39 40 42 43 43 44 44 45 45 45 45 45 45 46 46 46 46 47 48 48 48 49 49
24 25 26 26 26 26 27 29 29 30 32 34 34 34 34 34 35 37 38 39 40 40 41 42 43 44 44 44 45 45 45 45 46 46 46 47 46 47 47 47 48 48 49 49
24 26 26 26 27 27 28 29 29 29 31 32 33 34 34 34 35 37 38 39 40 41 41 41 42 43 43 43 44 44 45 45 45 45 45 46 46 46 46 46 47 48 48 49
22 24 24 25 27 28 28 29 29 30 30 31 32 33 34 35 36 37 38 39 40 40 40 40 41 41 42 42 43 43 44 44 44 44 44 45 46 46 45 46 46 47 47 47
23 23 23 24 26 27 28 29 29 30 30 31 31 32 33 34 34 35 36 38 39 40 40 39 40 41 41 42 42 42 42 42 43 43 43 43 44 44 45 46 46 46 46 45
22 22 23 23 24 25 26 27 29 30 31 32 31 31 32 33 33 34 35 36 37 38 39 40 40 40 41 41 41 41 42 42 42 43 43 44 44 44 45 45 45 45 44 44
20 20 21 22 23 24 25 26 27 28 29 30 31 30 31 32 33 33 34 35 36 38 39 39 40 40 40 40 41 42 42 42 42 42 42 43 43 44 44 45 45 44 43 42
18 19 20 20 21 23 24 24 24 25 26 27 29 30 31 32 33 33 34 35 36 37 37 37 38 39 39 39 40 40 40 41 41 41 42 42 42 42 42 42 42 42 42 41
18 18 19 19 20 21 23 23 24 25 26 26 27 29 30 31 32 33 33 34 35 36 37 37 37 37 37 38 39 39 39 39 39 39 39 40 40 41 41 40 40 40 40 40
18 18 18 19 19 21 22 23 24 24 26 26 27 28 29 29 30 31 32 32 33 35 36 36 36 36 36 37 37 38 38 38 38 38 38 38 38 38 39 38 38 38 37 37
17 18 19 19 20 21 22 22 23 24 25 26 26 27 27 28 29 29 30 31 32 33 34 35 36 36 37 37 37 37 37 37 37 37 37 37 37 37 36 36 35 35 35 35
17 18 19 20 20 20 21 22 22 23 24 24 25 26 26 27 27 28 28 29 30 31 32 33 34 35 36 36 36 36 36 36 36 36 36 35 35 34 34 33 33 33 33 33
16 17 18 19 19 20 20 20 21 22 22 23 24 25 26 26 26 27 27 28 29 29 30 30 30 31 32 33 34 34 34 34 34 34 33 33 32 31 31 31 31 31 31 32
15 15 16 17 18 19 19 20 20 21 21 22 22 22 24 25 26 27 27 28 28 28 28 28 28 28 29 30 30 30 30 31 31 31 30 30 29 29 28 28 29 29 30 30
15 15 15 16 17 18 18 18 19 19 20 20 21 21 22 23 25 26 27 27 27 27 27 26 26 27 26 27 27 28 28 29 29 29 29 28 28 28 28 27 27 28 28 28
15 15 15 16 17 17 17 18 19 20 20 20 21 22 22 23 24 25 25 25 26 26 26 25 25 25 26 26 26 26 27 27 27 27 27 27 27 27 27 27 27 27 27 27
16 16 17 17 18 18 18 19 19 20 20 20 21 21 22 23 23 23 23 23 23 24 24 24 24 25 25 25 26 26 26 26 25 25 25 25 26 26 26 26 26 26 26 26
15 16 17 17 18 18 19 19 19 19 20 20 21 21 21 22 22 22 22 22 22 22 23 23 23 24 24 25 25 24 24 23 23 23 24 24 24 24 24 24 25 25 25 25
15 16 17 17 17 17 17 18 18 18 19 20 20 21 21 21 21 21 22 21 21 21 21 21 22 22 22 23 23 23 23 23 23 23 23 23 23 23 23 23 23 24 24 24
15 15 16 16 16 16 16 16 17 17 18 18 19 19 19 20 20 20 21 21 20 20 20 20 20 21 21 21 21 21 21 21 20 21 21 21 21 22 22 22 23 23 23 23
15 16 16 16 16 16 16 16 17 17 17 17 17 17 17 18 18 19 19 19 20 20 19 19 19 18 18 18 19 19 19 18 19 19 19 19 20 20 21 21 21 20 20 20
16 16 16 16 16 16 16 16 16 16 16 16 16 16 17 16 17 17 18 19 19 19 18 17 16 17 17 17 17 17 17 17 17 17 18 18 18 19 19 19 19 19 19 19
17 17 17 16 16 16 16 16 16 16 15 15 15 15 15 16 16 16 17 17 17 17 17 16 16 16 16 16 16 16 16 16 16 16 17 17 16 16 16 17 17 18 18 18
Wind_Direction
238 237 235 233 232 232 233 235 238 237 238 238 238 238 238 238 238 237 237 237 237 238 239 240 241 243 246 248 250 252 254 256 257 259 261 262 264 265 266 267 269 270 272 272
238 238 237 235 233 233 233 233 235 237 238 238 239 239 239 239 239 239 239 238 238 239 240 241 242 244 246 248 250 252 254 256 258 260 262 263 264 266 267 268 269 270 272 273
242 240 240 237 235 236 236 235 236 237 237 238 240 241 238 238 238 238 238 239 239 240 240 241 242 244 246 248 250 252 255 257 259 261 263 264 265 266 268 269 269 271 272 273
245 242 242 239 238 240 239 237 238 239 238 238 239 240 239 238 238 237 238 238 238 239 240 241 243 245 247 249 251 253 255 257 259 261 263 265 266 267 268 269 270 271 272 274
246 245 244 240 238 240 240 239 239 240 239 239 240 241 240 239 238 238 239 239 240 241 242 243 244 246 248 250 252 254 256 258 259 261 263 265 266 268 269 270 271 272 273 274
246 247 245 241 240 240 240 240 240 241 241 241 241 243 242 240 240 240 241 242 242 243 244 244 246 247 250 251 253 255 256 258 260 262 264 265 266 268 270 271 271 272 273 274
248 249 248 244 243 243 243 242 241 241 240 241 241 242 242 241 241 241 242 243 243 244 245 247 248 248 250 252 253 255 257 258 260 262 264 266 267 269 271 272 273 273 274 275
251 251 251 247 246 246 246 245 246 245 243 243 243 242 242 243 243 244 245 246 247 247 247 248 249 250 251 252 254 256 258 259 261 263 265 267 269 270 272 273 274 275 276 276
253 254 255 252 251 249 248 248 247 246 245 244 243 243 243 243 244 245 245 246 247 248 248 249 250 251 251 253 255 256 258 260 262 263 265 268 269 271 273 274 275 276 276 275
254 253 253 252 251 251 251 251 250 249 246 246 246 245 244 243 243 245 245 245 246 248 248 249 250 251 252 254 255 255 258 260 262 264 266 268 270 272 273 274 275 275 275 274
258 255 253 252 252 252 251 250 250 250 247 246 245 246 245 244 245 246 246 245 246 247 248 249 250 251 253 255 256 258 260 262 263 266 267 269 271 272 274 275 275 275 274 273
263 259 257 255 254 254 252 250 249 247 246 246 246 246 248 248 248 248 249 249 250 249 249 250 252 254 255 257 258 260 261 263 265 266 268 270 272 273 275 276 275 275 273 273
263 261 259 257 257 256 255 254 252 249 247 246 247 248 249 250 250 251 251 252 252 252 251 251 253 254 255 257 259 261 263 264 266 268 270 271 273 274 274 275 275 275 274 273
261 261 261 259 258 258 258 258 256 253 251 250 250 251 252 252 252 252 252 253 253 253 253 254 255 255 256 258 260 262 263 265 267 269 271 272 273 274 274 274 273 273 274 273
260 260 261 262 262 261 260 259 258 256 255 253 254 254 253 254 255 255 253 254 255 256 257 258 258 258 258 260 261 263 264 266 268 270 272 273 273 273 273 272 271 270 272 273
262 262 262 263 263 262 261 260 259 258 257 256 256 255 254 255 255 255 255 256 257 258 259 260 260 260 261 261 262 263 264 266 268 269 271 273 273 273 272 270 269 270 270 271
268 266 264 263 262 262 263 262 259 258 258 258 258 256 255 255 255 257 258 258 258 259 259 260 260 260 261 261 262 263 264 265 266 268 270 271 273 272 271 270 270 270 271 273
274 271 270 267 263 262 263 262 260 258 259 260 260 259 257 257 257 259 260 260 260 260 259 259 259 259 260 261 262 263 263 264 266 268 269 269 269 269 269 270 270 271 273 274
277 275 273 270 267 265 262 261 260 261 263 263 261 261 261 260 260 260 261 260 260 259 258 258 258 259 260 261 262 263 263 265 266 267 268 268 268 268 269 270 272 273 274 274
279 275 273 270 270 268 265 263 263 265 267 266 264 262 262 262 263 263 262 261 260 258 257 257 258 259 261 263 263 263 264 265 266 266 266 267 268 268 269 271 273 274 274 275
281 277 273 272 272 271 269 268 267 267 266 266 264 263 264 263 263 262 262 260 258 257 256 257 259 261 263 263 263 263 264 264 265 265 266 267 268 268 269 271 272 273 274 275
283 280 279 278 275 273 272 271 270 270 268 266 264 264 263 262 262 261 260 259 257 256 257 259 261 263 264 263 262 262 263 263 264 266 267 268 270 269 270 271 272 273 274 275
286 284 283 283 279 276 273 273 272 271 268 266 264 263 263 262 261 259 258 258 257 257 257 259 261 262 263 263 262 262 263 264 266 266 267 269 270 270 271 272 273 275 277 278
288 288 286 284 283 281 277 275 275 274 271 267 266 265 264 262 261 258 256 256 256 257 258 260 262 263 263 264 264 263 263 264 265 266 268 270 270 271 271 273 275 278 278 278
289 290 287 285 283 281 279 279 279 277 272 267 265 265 264 263 261 257 255 255 256 257 259 261 263 263 263 263 262 261 262 263 265 268 270 271 270 272 272 273 274 276 277 277
286 288 286 283 281 280 281 281 279 276 272 268 265 264 264 263 262 259 257 257 257 257 259 259 261 262 262 263 262 260 260 261 264 266 270 272 272 272 273 272 273 276 277 278
286 285 283 280 278 278 279 279 277 274 271 268 266 265 264 264 264 262 260 258 256 257 258 260 261 262 262 261 260 259 260 262 264 268 271 273 273 274 274 274 275 277 279 280
Height
5572 5575 5577 5580 5584 5587 5590 5593 5597 5601 5605 5609 5612 5615 5619 5623 5628 5632 5637 5641 5645 5649 5652 5656 5659 5663 5666 5668 5671 5673 5675 5676 5677 5678 5679 5680 5680 5681 5680 5680 5680 5679 5679 5678
5566 5569 5571 5573 5577 5580 5583 5586 5590 5593 5598 5601 5604 5607 5611 5615 5619 5623 5627 5632 5635 5639 5642 5646 5649 5652 5655 5658 5660 5662 5664 5665 5666 5667 5668 5668 5669 5669 5669 5669 5668 5668 5667 5666
5560 5563 5564 5568 5571 5573 5576 5580 5583 5586 5591 5593 5596 5599 5603 5606 5610 5614 5618 5622 5626 5629 5632 5636 5639 5642 5645 5647 5649 5651 5653 5654 5655 5656 5657 5657 5657 5657 5657 5657 5656 5656 5655 5654
5554 5557 5558 5564 5565 5566 5569 5572 5575 5578 5582 5585 5588 5591 5594 5598 5601 5605 5608 5612 5616 5619 5622 5626 5629 5631 5634 5636 5639 5640 5642 5643 5644 5645 5645 5646 5646 5646 5645 5645 5644 5644 5643 5642
5547 5548 5551 5556 5558 5560 5562 5565 5568 5570 5574 5577 5579 5582 5586 5589 5592 5595 5599 5603 5606 5609 5612 5615 5618 5621 5623 5626 5628 5629 5631 5632 5633 5634 5634 5634 5634 5634 5633 5633 5632 5631 5630 5629
5541 5542 5544 5550 5551 5552 5555 5557 5560 5562 5565 5568 5570 5574 5578 5580 5583 5586 5590 5593 5596 5599 5602 5605 5608 5610 5613 5615 5617 5618 5619 5620 5621 5622 5622 5622 5622 5622 5621 5621 5620 5619 5618 5616
5535 5535 5537 5542 5543 5545 5548 5551 5552 5553 5556 5559 5562 5565 5569 5571 5574 5577 5580 5583 5586 5589 5592 5594 5597 5599 5602 5604 5605 5607 5608 5609 5610 5610 5611 5611 5610 5610 5609 5608 5607 5606 5605 5603
5528 5529 5534 5534 5535 5537 5539 5541 5543 5545 5548 5550 5553 5556 5559 5561 5564 5567 5570 5573 5575 5578 5581 5584 5586 5588 5591 5592 5594 5595 5596 5597 5598 5598 5599 5599 5599 5598 5597 5596 5595 5593 5592 5590
5523 5525 5526 5526 5527 5529 5530 5532 5534 5536 5539 5541 5544 5547 5549 5552 5555 5557 5560 5562 5565 5568 5570 5573 5575 5577 5579 5581 5582 5583 5585 5585 5586 5587 5587 5587 5586 5585 5585 5583 5582 5580 5579 5577
5516 5517 5518 5519 5520 5521 5522 5524 5526 5528 5530 5533 5535 5537 5540 5542 5545 5547 5549 5551 5554 5557 5559 5562 5564 5566 5568 5569 5571 5572 5573 5574 5574 5575 5575 5575 5574 5573 5572 5571 5569 5568 5566 5565
5509 5510 5511 5512 5513 5514 5515 5516 5518 5520 5521 5523 5526 5528 5530 5532 5535 5537 5539 5541 5543 5546 5549 5551 5553 5555 5557 5558 5559 5561 5561 5562 5562 5563 5563 5562 5561 5560 5559 5558 5556 5555 5554 5552
5503 5504 5504 5505 5506 5507 5508 5509 5510 5512 5513 5515 5517 5519 5521 5523 5525 5527 5529 5531 5533 5536 5538 5540 5542 5544 5545 5547 5548 5549 5550 5550 5550 5551 5550 5550 5549 5548 5546 5545 5544 5542 5541 5540
5496 5497 5497 5498 5499 5500 5500 5501 5502 5504 5505 5507 5508 5510 5512 5514 5516 5518 5520 5521 5523 5525 5527 5529 5531 5532 5534 5535 5537 5538 5538 5539 5539 5539 5538 5538 5537 5536 5535 5534 5532 5531 5529 5528
5490 5490 5491 5492 5492 5493 5493 5494 5495 5496 5497 5499 5500 5502 5504 5505 5507 5508 5510 5511 5513 5515 5516 5518 5520 5521 5523 5524 5525 5526 5527 5527 5527 5527 5527 5526 5525 5524 5523 5522 5521 5519 5518 5517
5484 5485 5485 5485 5486 5486 5486 5487 5488 5489 5490 5491 5492 5494 5495 5497 5498 5500 5501 5502 5503 5505 5506 5508 5509 5511 5512 5513 5514 5515 5515 5516 5516 5516 5515 5515 5514 5513 5512 5511 5510 5509 5508 5507
5479 5478 5479 5479 5479 5479 5480 5480 5481 5481 5482 5483 5484 5486 5487 5488 5489 5491 5492 5493 5494 5495 5496 5497 5498 5499 5501 5502 5503 5504 5504 5505 5505 5505 5504 5504 5503 5502 5501 5500 5499 5498 5498 5497
5473 5473 5472 5472 5472 5472 5473 5473 5473 5474 5475 5476 5476 5477 5478 5479 5481 5482 5483 5484 5485 5486 5487 5487 5488 5489 5490 5491 5492 5493 5493 5494 5494 5494 5494 5493 5492 5492 5491 5490 5489 5489 5488 5487
5467 5466 5466 5465 5465 5466 5466 5466 5467 5467 5468 5468 5469 5469 5470 5471 5472 5473 5474 5475 5476 5476 5477 5478 5479 5480 5481 5481 5482 5483 5483 5484 5484 5484 5483 5483 5483 5482 5482 5481 5480 5480 5479 5477
5461 5460 5460 5459 5459 5459 5459 5460 5460 5460 5460 5461 5461 5462 5462 5463 5464 5465 5465 5466 5466 5467 5468 5469 5470 5471 5472 5472 5473 5474 5474 5474 5475 5474 5474 5474 5474 5473 5473 5472 5472 5471 5470 5468
5455 5455 5454 5453 5453 5453 5453 5453 5453 5453 5453 5453 5454 5454 5455 5455 5455 5456 5456 5457 5458 5459 5460 5461 5462 5463 5463 5464 5464 5465 5465 5466 5466 5466 5466 5465 5465 5465 5464 5464 5463 5462 5461 5460
5450 5449 5448 5448 5447 5447 5447 5446 5446 5446 5446 5446 5446 5447 5447 5447 5448 5448 5448 5449 5450 5451 5452 5453 5454 5455 5455 5456 5456 5456 5457 5457 5457 5457 5457 5457 5457 5456 5456 5455 5454 5453 5452 5451
5444 5443 5442 5442 5441 5440 5440 5440 5439 5439 5439 5439 5439 5439 5440 5440 5440 5441 5441 5442 5443 5443 5444 5445 5446 5446 5447 5447 5448 5448 5448 5448 5449 5449 5449 5448 5448 5448 5447 5446 5446 5445 5444 5443
5438 5437 5436 5435 5435 5434 5434 5433 5433 5432 5432 5432 5432 5432 5432 5433 5433 5434 5434 5435 5436 5436 5437 5438 5438 5439 5439 5439 5440 5440 5440 5440 5441 5441 5440 5440 5440 5439 5439 5438 5438 5437 5436 5435
5433 5432 5430 5430 5429 5428 5427 5427 5426 5426 5425 5425 5425 5425 5425 5426 5426 5427 5428 5428 5429 5430 5430 5431 5431 5431 5431 5432 5432 5432 5433 5433 5433 5433 5433 5432 5432 5432 5431 5431 5430 5429 5428 5426
5427 5426 5425 5424 5423 5422 5422 5421 5420 5419 5419 5419 5419 5419 5419 5420 5420 5420 5421 5422 5423 5423 5424 5424 5424 5424 5425 5425 5425 5425 5426 5426 5426 5426 5426 5425 5425 5425 5424 5423 5422 5421 5420 5419
5421 5420 5419 5418 5417 5417 5416 5415 5414 5414 5413 5413 5413 5414 5414 5414 5414 5414 5415 5416 5416 5417 5417 5418 5418 5418 5418 5419 5419 5419 5420 5420 5420 5420 5419 5419 5418 5418 5417 5416 5415 5414 5413 5412
5415 5414 5413 5412 5412 5411 5410 5410 5409 5409 5408 5408 5408 5408 5408 5408 5409 5409 5409 5410 5410 5411 5412 5412 5412 5412 5413 5413 5413 5413 5414 5414 5414 5413 5413 5413 5412 5411 5410 5410 5409 5408 5407 5406